Showing default

SAUDISAT 4, 40016

Orbit data source: Space-Track

SAUDISAT 4, 40016 is a payload satellite owned by KACST (SA) in SSO that was launched on Thu, 19 Jun 2014 UTC via a DNEPR launch vehicle from the Orenburg, Russia (OREN). Payload-class satellites include a variety of spacecraft equipped with specific instruments for various scientific and technological missions. These include communications satellites like Starlink; space stations such as the ISS; scientific satellites like the Hubble; Earth observation satellites from companies like Planet Labs, Umbra, and HawkEye 360; GPS; miniature CubeSats for education and research; and military/defense satellites.

Loading next visibility...
Identifier
40016, 2014-033G
Orbit
SSO
Country
Flag of SASA / SAUD
Related business
Manufacturer
KACST
Mission
Operational Civil Technology
Bus & Motor
SAUDISAT, Unknown motor
Mass
100 kg wet, 100 kg dry
Launch date (UTC)
2014-06-19 (12 years ago)
Launch vehicle
DNEPR
Launch site
Orenburg, Russia (OREN)
Object type
Payload
Rocket body
Debris
Shape & HBR
Box, 0.3 m
Radar Cross Section
0.275 m², Medium (>0.1 m² and < 1m²)

Expand to show TLE details & history
Last TLE update: 2 days ago

TLE from 2 days ago
0 SAUDISAT 4
1 40016U 14033G   26171.36507205  .00000472  00000-0  68801-4 0  9997
2 40016  97.7587 317.3897 0046061  63.9529 296.6414 14.79548154646540
Epoch: 2026-06-20T08:45Z
TLE epoch observation values (Epoch: 2026-06-20T08:45:42.225Z)
Latitude
-0.00005°
Longitude
-82.61697°
Altitude
619.416 km
Speed
7.557 km/s
True Right ascension
21h 09m 33s
True Declination
0° 00' 00"
Sunlit
Object was in full shadow at epoch
Visualization orbit readout
Latitude
Unknown
Longitude
Unknown
Altitude
Unknown
Speed
Unknown
Apparent Right ascension
Unknown
Apparent Declination
Unknown
Sunlit
N/A
Visualization observer readout
Local Sidereal Time
21:38:52
Azimuth
Unknown
Elevation
Unknown
Doppler factor
Unknown
Orbital elements
Apogee altitude
660.056 km
Perigee altitude
595.516 km
Semi-major axis
7,005.923 km
Eccentricity
0.00461
Inclination
97.7587°
RAAN
317.3897°
Arg. of periapsis
63.9529°
True anomaly
296.1684°
Mean anomaly
296.6414°
Eccentric anomaly
296.40502°
Mean motion
3.70122 °/min
Orbital period
97.27 mins
BSTAR
0.000068801
Loading maneuver chart data...
Computing Atmospheric mass density...
Loading historical data...
Loading historical data...
Loading historical data...
Loading historical data...
Loading historical data...
Loading historical data...
Loading historical data...

Documentation

Showing up to 5 results
|